Погода в Чигораке

Россия / Воронежская область     51°25′43″N   42°09′43″E
темп.,
°C
ветер,
м/с
пор.,
м/с
влажн.,
%
обл.,
%
осадки,
мм/ч
давл.,
гПа
погр.,
м
9 мая, вс
вс900:00+13ю51393100 0.6 1007330
03:00+11ю3497100 0.6 100776
06:00+12юз2398100 1.1 1007125
09:00+8з6993100 4.3 1009466
12:00+6з6991100 4.4 1011531
15:00+7зсз5887100 6.3 1013801
18:00+6сз6987100 0.1 1015752
21:00+5сз51096100 0.1 1016597
10 мая, пн
пн1000:00+5ссз51095100 0.1 1017552
03:00+5ссз61195100 0.2 1017582
06:00+6с71394100 0.6 1017663
09:00+7с91694100 1.4 1016633
12:00+8ссв91695100 2.3 1016599
15:00+9ссв101894100 4.8 1015602
18:00+10ссв101893100 1.6 1015552
21:00+12св81790100 1.7 1016613
11 мая, вт
вт1100:00+12св81792100 0.0 1015454
03:00+12св71592100 0.1 1015577
06:00+8вюв51096100 3.4 1019583
09:00+11вюв69721 4.0 1021913
12:00+14юв79609 0.0 10231365
15:00+16вюв6954100 0.0 10231778
18:00+13всв61077100 0.1 1024528
21:00+10всв3582100 0.1 1024112
12 мая, ср
ср1200:00+9всв4786100 0.1 1024219
03:00+8всв238849 0.1 102349
06:00+9св25914 0.0 1023162
09:00+14св33738 0.0 1022564
12:00+15св3278100 0.0 1022657
15:00+16св2175100 0.1 1021633
18:00+15св2384100 0.0 1021240
21:00+13всв2292100 0.0 102036
13 мая, чт
чт1300:00+13в3797100 0.3 1019196
03:00+13в369697 1.7 1019179
06:00+13в2593100 0.2 1018179
09:00+14вюв2588100 0.2 1018316
12:00+20юв346997 0.0 10181125
15:00+20юв2371100 0.1 1018582
18:00+20в237117 0.1 1018165
21:00+16юв2278100 0.1 101913